QPF
0.00 0.01 0.01 0.00 0.01 0.01 0.01 0.01 0.01 0.01 0.00 0.00 0.00 0.00 0.00 0.00 0.00 0.00 0.00 0.00 0.00 0.00 0.00 0.00 0.00 0.00 0.00 0.00 0.00 0.00 0.00 0.00 0.00 0.01 0.01 0.00 0.00 0.00 0.00 0.00 0.00 0.00 0.00 0.00 0.00 0.00 0.00 0.00 0.00 0.00 0.00 0.00
0.03 0.09 0.10 0.03 0.02 0.01 0.01 0.00 0.01 0.01 0.01 0.00 0.00 0.00 0.00 0.00 0.00 0.01 0.01 0.02 0.02 0.00 0.00 0.00 0.00 0.00 0.00 0.00 0.00 0.00 0.00 0.00 0.00 0.01 0.01 0.00 0.00 0.00 0.00 0.00 0.00 0.00 0.00 0.00 0.00 0.00 0.00 0.00 0.00 0.00 0.00 0.00
0.17 0.88 0.92 0.60 0.24 0.05 0.07 0.05 0.03 0.01 0.02 0.01 0.00 0.00 0.00 0.00 0.01 0.01 0.02 0.01 0.01 0.00 0.00 0.00 0.00 0.00 0.00 0.00 0.00 0.00 0.00 0.00 0.00 0.01 0.02 0.01 0.00 0.00 0.00 0.00 0.00 0.00 0.00 0.00 0.00 0.00 0.00 0.00 0.00 0.00 0.00 0.00
0.17 0.38 0.54 0.69 0.72 0.68 0.54 0.32 0.30 0.23 0.17 0.06 0.02 0.01 0.01 0.02 0.04 0.03 0.04 0.02 0.02 0.00 0.00 0.00 0.00 0.00 0.00 0.00 0.00 0.00 0.00 0.00 0.00 0.00 0.03 0.01 0.00 0.00 0.00 0.00 0.00 0.00 0.00 0.00 0.00 0.00 0.00 0.00 0.00 0.00 0.00 0.00
0.37 0.49 0.96 0.31 0.34 0.38 0.83 0.80 0.48 0.47 0.37 0.40 0.14 0.04 0.03 0.04 0.04 0.04 0.03 0.02 0.01 0.00 0.00 0.00 0.00 0.00 0.00 0.00 0.00 0.00 0.00 0.00 0.00 0.00 0.05 0.03 0.01 0.00 0.00 0.00 0.00 0.00 0.00 0.00 0.00 0.00 0.00 0.00 0.00 0.00 0.00 0.00
0.90 0.60 0.48 0.33 0.75 0.66 0.60 0.62 0.86 0.39 0.25 0.37 0.15 0.09 0.05 0.09 0.12 0.05 0.03 0.02 0.01 0.01 0.00 0.00 0.00 0.00 0.00 0.00 0.00 0.00 0.00 0.00 0.00 0.00 0.04 0.09 0.01 0.00 0.00 0.00 0.00 0.00 0.00 0.00 0.00 0.00 0.00 0.00 0.00 0.00 0.00 0.00
0.12 0.10 0.11 0.57 0.52 0.56 0.39 0.63 0.70 0.32 0.43 0.11 0.11 0.08 0.04 0.11 0.07 0.14 0.03 0.01 0.00 0.00 0.00 0.00 0.00 0.00 0.00 0.00 0.00 0.00 0.00 0.01 0.00 0.00 0.01 0.01 0.00 0.00 0.00 0.00 0.00 0.00 0.00 0.00 0.00 0.00 0.00 0.00 0.00 0.00 0.00 0.00
0.12 0.11 0.53 0.37 0.36 0.33 0.43 0.39 0.58 0.52 0.31 0.20 0.06 0.10 0.06 0.15 0.10 0.14 0.02 0.01 0.01 0.01 0.01 0.01 0.03 0.00 0.00 0.00 0.00 0.10 0.06 0.03 0.00 0.00 0.00 0.00 0.00 0.00 0.00 0.00 0.00 0.00 0.00 0.00 0.00 0.00 0.00 0.00 0.00 0.00 0.00 0.00
0.03 0.17 0.09 0.22 0.28 0.27 0.53 0.33 0.21 0.26 0.32 0.27 0.23 0.14 0.09 0.17 0.06 0.05 0.03 0.01 0.01 0.01 0.00 0.03 0.00 0.00 0.00 0.00 0.05 0.01 0.01 0.01 0.01 0.06 0.00 0.00 0.00 0.00 0.00 0.00 0.00 0.00 0.00 0.00 0.00 0.00 0.00 0.00 0.00 0.00 0.00 0.00
0.03 0.08 0.10 0.11 0.22 0.30 0.25 0.77 0.60 0.26 0.38 0.46 0.41 0.22 0.37 0.16 0.10 0.02 0.05 0.01 0.03 0.00 0.00 0.03 0.05 0.00 0.05 0.14 0.09 0.03 0.08 0.01 0.11 0.00 0.00 0.00 0.00 0.00 0.00 0.00 0.00 0.00 0.00 0.00 0.00 0.00 0.00 0.00 0.00 0.00 0.00 0.00
0.04 0.06 0.11 0.21 0.30 0.39 0.36 0.22 0.31 0.41 0.39 0.38 0.23 0.41 0.37 0.31 0.28 0.08 0.05 0.02 0.04 0.02 0.01 0.02 0.05 0.05 0.01 0.00 0.01 0.05 0.00 0.00 0.00 0.00 0.00 0.00 0.00 0.00 0.00 0.00 0.00 0.00 0.00 0.00 0.00 0.00 0.00 0.00 0.00 0.00 0.00 0.00
0.01 0.04 0.15 0.18 0.24 0.43 0.46 0.65 0.47 0.41 0.35 0.39 0.67 0.51 0.52 0.26 0.25 0.22 0.21 0.11 0.18 0.18 0.34 0.19 0.33 0.13 0.17 0.08 0.09 0.01 0.09 0.00 0.00 0.00 0.00 0.00 0.00 0.00 0.00 0.00 0.00 0.00 0.00 0.00 0.00 0.00 0.00 0.00 0.00 0.00 0.00 0.00
0.01 0.01 0.04 0.07 0.13 0.28 0.52 0.49 0.78 1.12 1.06 0.90 0.73 0.65 0.62 0.62 0.38 0.33 0.23 0.64 0.65 0.34 0.37 0.31 0.37 0.24 0.26 0.19 0.07 0.08 0.10 0.14 0.02 0.06 0.06 0.09 0.02 0.02 0.03 0.00 0.00 0.00 0.00 0.00 0.00 0.00 0.00 0.00 0.00 0.00 0.00 0.00
0.00 0.01 0.01 0.06 0.09 0.14 0.19 0.50 0.74 0.67 0.88 1.17 1.11 1.06 1.13 0.91 0.63 0.51 0.31 0.37 0.47 0.56 0.57 0.55 0.46 0.40 0.38 0.32 0.25 0.22 0.26 0.18 0.13 0.08 0.13 0.15 0.15 0.13 0.05 0.02 0.00 0.00 0.00 0.00 0.00 0.00 0.00 0.00 0.00 0.00 0.00 0.00
0.00 0.00 0.01 0.02 0.03 0.19 0.28 0.43 0.42 0.50 0.70 0.77 0.79 0.93 1.17 1.39 1.43 1.27 1.11 0.92 0.77 0.61 0.61 0.60 0.61 0.49 0.43 0.39 0.34 0.34 0.32 0.25 0.23 0.16 0.14 0.13 0.11 0.07 0.05 0.03 0.01 0.00 0.00 0.00 0.00 0.00 0.00 0.00 0.00 0.00 0.00 0.00
0.00 0.00 0.01 0.02 0.07 0.20 0.13 0.10 0.19 0.31 0.48 0.59 0.63 0.57 0.55 0.62 0.75 0.91 0.90 0.85 0.84 0.84 0.75 0.68 0.72 0.67 0.59 0.53 0.48 0.45 0.51 0.40 0.38 0.28 0.20 0.14 0.12 0.11 0.08 0.06 0.04 0.03 0.02 0.01 0.01 0.01 0.01 0.00 0.01 0.00 0.00 0.00
0.00 0.00 0.01 0.01 0.02 0.02 0.03 0.03 0.08 0.09 0.18 0.34 0.46 0.54 0.60 0.77 0.80 0.93 0.85 0.77 0.75 0.71 0.72 0.73 0.73 0.70 0.71 0.71 0.67 0.65 0.54 0.46 0.42 0.37 0.31 0.32 0.24 0.25 0.16 0.18 0.21 0.12 0.09 0.13 0.12 0.07 0.08 0.06 0.07 0.10 0.04 0.03
0.00 0.01 0.01 0.01 0.02 0.02 0.02 0.03 0.04 0.03 0.05 0.09 0.15 0.22 0.33 0.46 0.47 0.54 0.59 0.65 0.72 0.71 0.80 0.72 0.74 0.71 0.59 0.55 0.52 0.53 0.51 0.55 0.52 0.54 0.43 0.36 0.34 0.25 0.17 0.14 0.15 0.10 0.11 0.13 0.13 0.15 0.13 0.10 0.09 0.08 0.07 0.07
0.00 0.00 0.00 0.00 0.00 0.00 0.00 0.01 0.04 0.05 0.06 0.07 0.08 0.11 0.15 0.17 0.21 0.25 0.31 0.40 0.51 0.67 0.73 0.78 0.74 0.73 0.69 0.70 0.63 0.60 0.58 0.57 0.54 0.52 0.44 0.34 0.28 0.21 0.18 0.14 0.11 0.09 0.09 0.08 0.08 0.09 0.11 0.13 0.13 0.12 0.11 0.09
0.00 0.00 0.00 0.00 0.00 0.00 0.00 0.00 0.00 0.01 0.02 0.06 0.13 0.16 0.20 0.24 0.28 0.34 0.45 0.52 0.58 0.66 0.66 0.59 0.58 0.54 0.56 0.65 0.57 0.57 0.62 0.56 0.52 0.45 0.38 0.30 0.22 0.16 0.13 0.10 0.11 0.11 0.11 0.11 0.10 0.09 0.10 0.12 0.14 0.15 0.15 0.15
0.00 0.00 0.00 0.00 0.00 0.00 0.00 0.00 0.00 0.01 0.02 0.02 0.02 0.06 0.15 0.21 0.23 0.25 0.27 0.33 0.43 0.50 0.63 0.54 0.56 0.56 0.56 0.55 0.56 0.53 0.51 0.48 0.43 0.36 0.31 0.25 0.20 0.16 0.15 0.13 0.11 0.09 0.08 0.09 0.17 0.22 0.27 0.19 0.19 0.22 0.16 0.15
0.00 0.00 0.00 0.00 0.00 0.00 0.00 0.00 0.00 0.00 0.00 0.01 0.01 0.01 0.02 0.03 0.05 0.07 0.09 0.13 0.21 0.26 0.28 0.35 0.34 0.35 0.38 0.41 0.43 0.44 0.44 0.43 0.39 0.35 0.31 0.26 0.23 0.19 0.16 0.13 0.11 0.10 0.09 0.09 0.11 0.11 0.09 0.10 0.11 0.20 0.25 0.21
0.00 0.00 0.01 0.00 0.00 0.00 0.00 0.00 0.00 0.00 0.00 0.00 0.00 0.01 0.01 0.01 0.02 0.03 0.03 0.05 0.12 0.15 0.24 0.29 0.31 0.36 0.35 0.34 0.34 0.35 0.34 0.32 0.32 0.30 0.27 0.22 0.18 0.15 0.13 0.12 0.10 0.10 0.09 0.10 0.12 0.12 0.15 0.12 0.11 0.09 0.08 0.06
0.00 0.00 0.00 0.00 0.00 0.00 0.00 0.00 0.00 0.00 0.00 0.00 0.00 0.00 0.01 0.01 0.01 0.01 0.02 0.04 0.07 0.11 0.17 0.21 0.24 0.26 0.29 0.31 0.25 0.24 0.23 0.24 0.24 0.23 0.22 0.20 0.19 0.19 0.17 0.15 0.13 0.11 0.10 0.09 0.09 0.09 0.08 0.07 0.06 0.06 0.06 0.07
0.00 0.00 0.00 0.00 0.00 0.00 0.00 0.00 0.00 0.00 0.00 0.00 0.00 0.00 0.00 0.00 0.01 0.01 0.01 0.03 0.09 0.18 0.22 0.21 0.18 0.18 0.19 0.22 0.24 0.25 0.26 0.26 0.26 0.25 0.21 0.18 0.16 0.15 0.15 0.13 0.12 0.09 0.09 0.09 0.09 0.07 0.05 0.04 0.03 0.02 0.02 0.02
0.00 0.00 0.00 0.01 0.00 0.00 0.00 0.00 0.00 0.00 0.00 0.00 0.00 0.00 0.00 0.01 0.01 0.01 0.01 0.02 0.06 0.13 0.17 0.18 0.17 0.16 0.17 0.19 0.21 0.22 0.23 0.24 0.24 0.22 0.19 0.16 0.14 0.12 0.11 0.11 0.10 0.08 0.07 0.07 0.09 0.09 0.08 0.06 0.03 0.02 0.01 0.01
0.00 0.00 0.01 0.01 0.01 0.01 0.01 0.00 0.00 0.00 0.00 0.00 0.00 0.00 0.00 0.00 0.00 0.01 0.01 0.02 0.04 0.08 0.13 0.16 0.18 0.19 0.19 0.19 0.19 0.20 0.21 0.21 0.21 0.20 0.17 0.14 0.13 0.15 0.12 0.09 0.09 0.07 0.06 0.06 0.06 0.06 0.06 0.08 0.09 0.07 0.06 0.05
0.00 0.00 0.01 0.01 0.01 0.01 0.01 0.01 0.00 0.00 0.00 0.00 0.00 0.00 0.00 0.00 0.00 0.01 0.01 0.02 0.02 0.03 0.04 0.06 0.09 0.13 0.16 0.18 0.19 0.19 0.21 0.22 0.22 0.22 0.19 0.17 0.14 0.12 0.14 0.13 0.10 0.08 0.06 0.06 0.06 0.06 0.06 0.06 0.05 0.07 0.06 0.06
0.00 0.00 0.00 0.00 0.01 0.01 0.01 0.01 0.01 0.00 0.00 0.00 0.00 0.00 0.00 0.00 0.00 0.01 0.01 0.02 0.02 0.02 0.03 0.04 0.06 0.09 0.12 0.14 0.15 0.16 0.16 0.18 0.18 0.19 0.18 0.16 0.14 0.12 0.11 0.13 0.13 0.12 0.10 0.07 0.06 0.07 0.10 0.11 0.09 0.07 0.05 0.03
0.00 0.00 0.00 0.00 0.00 0.00 0.00 0.01 0.00 0.01 0.00 0.00 0.00 0.00 0.00 0.00 0.00 0.01 0.02 0.03 0.03 0.03 0.04 0.04 0.05 0.07 0.09 0.12 0.13 0.13 0.12 0.12 0.13 0.13 0.13 0.12 0.11 0.10 0.09 0.08 0.11 0.13 0.12 0.09 0.09 0.10 0.10 0.09 0.10 0.08 0.05 0.06
0.00 0.00 0.00 0.00 0.00 0.00 0.00 0.00 0.00 0.00 0.00 0.01 0.01 0.02 0.03 0.04 0.04 0.04 0.04 0.04 0.04 0.04 0.04 0.05 0.06 0.08 0.10 0.11 0.12 0.12 0.12 0.12 0.12 0.12 0.11 0.09 0.08 0.06 0.06 0.06 0.06 0.08 0.09 0.09 0.10 0.12 0.12 0.11 0.09 0.06 0.08 0.11
MSLP
1019.23 1019.15 1018.83 1018.75 1018.71 1018.67 1018.67 1018.63 1018.63 1018.71 1018.71 1018.83 1018.83 1018.99 1019.11 1019.27 1019.39 1019.55 1019.75 1019.91 1020.07 1020.27 1020.43 1020.51 1020.63 1020.71 1020.83 1020.99 1021.03 1021.15 1021.23 1021.23 1021.19 1021.19 1021.19 1021.31 1021.39 1021.51 1021.63 1021.75 1021.87 1021.83 1021.79 1021.71 1021.67 1021.67 1021.75 1021.87 1021.99 1022.11 1022.19 1022.35
1019.31 1019.27 1019.23 1019.03 1018.67 1018.55 1018.47 1018.39 1018.43 1018.43 1018.47 1018.51 1018.67 1018.79 1018.91 1019.03 1019.27 1019.47 1019.63 1019.87 1020.03 1020.19 1020.35 1020.47 1020.55 1020.71 1020.75 1020.83 1020.91 1020.99 1021.15 1021.23 1021.23 1021.23 1021.19 1021.23 1021.35 1021.51 1021.79 1021.95 1022.03 1022.03 1021.95 1021.87 1021.79 1021.79 1021.83 1021.95 1022.03 1022.15 1022.27 1022.43
1019.39 1019.19 1019.11 1018.95 1018.99 1019.03 1018.71 1018.55 1018.35 1018.27 1018.35 1018.35 1018.43 1018.55 1018.63 1018.79 1018.99 1019.23 1019.43 1019.75 1020.03 1020.07 1020.15 1020.35 1020.43 1020.59 1020.63 1020.55 1020.71 1020.83 1020.99 1021.15 1021.15 1021.23 1021.19 1021.15 1021.23 1021.47 1021.71 1021.95 1022.11 1022.19 1022.07 1022.03 1021.99 1022.07 1022.15 1022.15 1022.19 1022.27 1022.43 1022.59
1019.47 1019.23 1019.03 1018.83 1018.79 1018.91 1018.91 1018.95 1018.55 1018.59 1018.55 1018.55 1018.47 1018.59 1018.67 1018.67 1018.71 1018.95 1019.23 1019.47 1019.71 1019.79 1019.91 1020.11 1020.27 1020.47 1020.55 1020.43 1020.47 1020.67 1020.83 1021.03 1021.07 1021.11 1021.11 1021.11 1021.19 1021.43 1021.55 1021.83 1022.11 1022.19 1022.15 1022.15 1022.19 1022.27 1022.31 1022.31 1022.39 1022.55 1022.67 1022.75
1019.47 1019.23 1018.99 1018.83 1018.75 1018.75 1018.63 1018.95 1019.03 1018.55 1018.47 1018.43 1018.75 1018.71 1018.63 1018.67 1018.75 1018.79 1018.95 1019.23 1019.47 1019.59 1019.67 1019.87 1020.03 1020.27 1020.39 1020.35 1020.39 1020.51 1020.63 1020.83 1020.95 1020.95 1020.99 1021.07 1021.23 1021.31 1021.47 1021.71 1021.99 1022.15 1022.27 1022.31 1022.39 1022.47 1022.47 1022.47 1022.63 1022.83 1022.91 1022.95
1019.39 1019.19 1018.99 1018.71 1018.59 1018.55 1018.27 1018.47 1018.63 1018.55 1018.39 1018.51 1018.87 1018.83 1018.67 1018.67 1018.67 1018.71 1018.75 1018.99 1019.31 1019.43 1019.47 1019.63 1019.75 1019.95 1020.15 1020.27 1020.35 1020.43 1020.47 1020.59 1020.79 1020.91 1020.99 1021.11 1021.19 1021.35 1021.47 1021.55 1021.91 1022.19 1022.35 1022.47 1022.55 1022.67 1022.67 1022.75 1022.95 1023.07 1023.15 1023.15
1019.59 1019.27 1018.99 1018.71 1018.59 1018.39 1018.27 1018.27 1018.43 1018.51 1018.63 1018.39 1018.47 1018.63 1018.59 1018.59 1018.63 1018.63 1018.67 1018.71 1018.99 1019.23 1019.39 1019.55 1019.75 1019.79 1019.87 1019.99 1020.15 1020.39 1020.47 1020.55 1020.67 1020.83 1020.99 1021.03 1021.15 1021.35 1021.51 1021.63 1021.83 1022.11 1022.35 1022.59 1022.75 1022.83 1022.95 1023.11 1023.23 1023.27 1023.35 1023.39
1019.75 1019.47 1019.11 1018.79 1018.63 1018.55 1018.43 1018.35 1018.43 1018.55 1018.51 1018.67 1018.35 1018.35 1018.47 1018.47 1018.47 1018.51 1018.63 1018.59 1018.75 1019.07 1019.31 1019.43 1019.55 1019.75 1019.87 1019.95 1020.03 1020.31 1020.55 1020.63 1020.67 1020.83 1020.99 1021.15 1021.23 1021.39 1021.55 1021.75 1021.91 1022.07 1022.35 1022.63 1022.87 1023.07 1023.27 1023.43 1023.55 1023.55 1023.67 1023.67
1019.95 1019.63 1019.23 1018.95 1018.75 1018.59 1018.47 1018.39 1018.31 1018.27 1018.31 1018.47 1018.55 1018.23 1018.23 1018.27 1018.39 1018.51 1018.63 1018.67 1018.75 1018.83 1019.03 1019.31 1019.55 1019.75 1019.91 1020.07 1020.11 1020.23 1020.59 1020.67 1020.75 1020.83 1021.11 1021.31 1021.43 1021.47 1021.55 1021.71 1021.95 1022.07 1022.43 1022.75 1022.99 1023.27 1023.55 1023.75 1023.87 1023.95 1023.99 1024.03
1020.31 1019.95 1019.75 1019.55 1019.27 1018.87 1018.59 1018.47 1018.35 1018.35 1018.35 1018.35 1018.47 1018.51 1017.99 1018.15 1018.27 1018.47 1018.51 1018.79 1018.87 1018.95 1018.99 1019.15 1019.31 1019.51 1019.67 1019.87 1019.87 1019.79 1020.23 1020.67 1020.79 1020.95 1021.11 1021.31 1021.59 1021.75 1021.75 1021.79 1021.91 1022.11 1022.27 1022.71 1023.03 1023.31 1023.67 1023.99 1024.19 1024.35 1024.39 1024.39
1020.71 1020.63 1020.51 1020.27 1019.99 1019.55 1019.31 1018.87 1018.51 1018.43 1018.35 1018.31 1018.11 1018.27 1018.31 1018.31 1018.55 1018.55 1018.47 1018.83 1019.03 1019.11 1019.19 1019.27 1019.35 1019.47 1019.51 1019.63 1019.83 1019.87 1019.87 1020.31 1020.59 1020.83 1021.03 1021.27 1021.59 1021.83 1022.03 1022.15 1022.15 1022.31 1022.51 1022.67 1022.95 1023.23 1023.59 1023.99 1024.35 1024.59 1024.75 1024.75
1020.91 1020.99 1020.87 1020.75 1020.39 1020.07 1019.87 1019.47 1019.27 1019.03 1018.67 1018.35 1018.35 1018.43 1018.55 1018.07 1018.15 1018.63 1018.59 1018.67 1018.91 1019.11 1019.39 1019.55 1019.71 1019.63 1019.63 1019.55 1019.75 1020.11 1020.07 1020.31 1020.55 1020.79 1021.11 1021.39 1021.75 1022.03 1022.27 1022.43 1022.59 1022.67 1022.83 1023.07 1023.15 1023.43 1023.75 1023.95 1024.31 1024.71 1024.95 1025.07
1021.27 1021.15 1021.19 1021.11 1020.99 1020.83 1020.51 1020.07 1019.83 1019.55 1019.07 1018.67 1018.55 1018.51 1018.75 1018.47 1017.95 1018.23 1018.43 1018.75 1019.15 1019.39 1019.79 1020.15 1020.31 1020.31 1020.43 1020.43 1020.35 1020.35 1020.35 1020.43 1020.59 1020.91 1021.47 1021.75 1022.07 1022.35 1022.59 1022.79 1022.99 1023.11 1023.35 1023.51 1023.67 1023.63 1023.95 1024.23 1024.47 1024.71 1025.03 1025.23
1021.83 1021.51 1021.35 1021.39 1021.39 1021.27 1020.87 1020.67 1020.43 1019.99 1019.67 1019.31 1018.99 1018.83 1018.83 1018.71 1018.63 1018.51 1018.27 1018.87 1019.19 1019.59 1020.19 1020.51 1020.67 1020.83 1020.99 1021.07 1021.23 1021.27 1020.99 1020.91 1021.07 1021.03 1021.43 1021.95 1022.39 1022.71 1022.99 1023.31 1023.51 1023.47 1023.83 1024.11 1024.27 1024.31 1024.27 1024.43 1024.67 1024.87 1025.07 1025.39
1022.39 1022.07 1021.71 1021.59 1021.51 1021.43 1021.27 1021.11 1020.79 1020.59 1020.31 1020.03 1019.75 1019.51 1019.19 1019.07 1018.79 1019.07 1019.03 1018.67 1018.91 1019.31 1019.71 1020.35 1020.95 1021.11 1021.19 1021.47 1021.67 1021.91 1022.11 1021.95 1021.95 1021.91 1021.71 1022.11 1022.71 1023.15 1023.47 1023.91 1024.07 1024.11 1024.39 1024.71 1024.95 1025.11 1024.99 1025.07 1025.11 1025.19 1025.31 1025.51
1022.83 1022.71 1022.51 1022.07 1021.75 1021.63 1021.51 1021.31 1021.23 1021.11 1020.95 1020.71 1020.39 1019.99 1019.63 1019.43 1019.31 1019.31 1019.51 1019.51 1019.47 1019.43 1019.67 1019.91 1020.31 1021.07 1021.47 1021.75 1022.03 1022.31 1022.63 1022.67 1022.79 1022.67 1022.75 1022.67 1023.11 1023.67 1024.07 1024.55 1024.75 1024.87 1025.07 1025.55 1025.83 1025.87 1025.87 1025.79 1025.83 1025.99 1026.07 1025.99
1023.31 1023.19 1023.03 1022.79 1022.51 1022.23 1021.91 1021.63 1021.51 1021.47 1021.43 1021.27 1020.91 1020.51 1020.31 1020.03 1019.83 1019.67 1019.59 1019.75 1019.91 1020.23 1019.87 1019.51 1019.63 1019.99 1020.55 1020.95 1021.27 1021.91 1022.71 1022.95 1023.23 1023.43 1023.47 1023.63 1023.67 1023.99 1024.43 1024.99 1025.43 1025.43 1025.63 1026.11 1026.59 1026.67 1026.83 1026.79 1026.75 1026.83 1026.87 1026.83
1023.59 1023.59 1023.47 1023.23 1023.07 1022.83 1022.51 1022.23 1022.11 1022.03 1021.83 1021.63 1021.39 1021.19 1021.03 1020.87 1020.63 1020.35 1020.23 1020.23 1020.35 1020.51 1020.75 1020.55 1020.23 1020.11 1020.63 1021.07 1021.23 1021.39 1021.75 1022.55 1023.11 1023.67 1023.83 1023.91 1023.99 1024.43 1024.67 1025.07 1025.51 1025.63 1025.99 1026.43 1026.71 1027.03 1027.39 1027.47 1027.51 1027.43 1027.39 1027.47
1023.83 1023.83 1023.83 1023.71 1023.51 1023.27 1023.03 1022.79 1022.63 1022.47 1022.27 1022.07 1021.87 1021.63 1021.51 1021.47 1021.31 1021.11 1020.83 1020.63 1020.71 1020.99 1021.15 1021.11 1021.07 1020.95 1020.95 1021.11 1021.39 1021.67 1021.91 1022.11 1022.59 1023.15 1024.03 1024.27 1024.31 1024.71 1025.11 1025.55 1025.87 1025.87 1026.19 1026.47 1026.79 1027.15 1027.39 1027.83 1028.03 1027.99 1027.99 1027.99
1024.27 1024.07 1023.99 1024.03 1023.95 1023.75 1023.51 1023.27 1023.07 1022.99 1022.87 1022.63 1022.39 1022.15 1022.03 1021.91 1021.79 1021.67 1021.47 1021.27 1021.03 1020.83 1021.03 1021.19 1021.27 1021.35 1021.27 1021.39 1021.63 1021.87 1022.19 1022.51 1022.99 1023.11 1023.31 1023.63 1023.67 1024.39 1025.23 1025.51 1026.15 1026.31 1026.55 1026.79 1027.07 1027.31 1027.47 1027.83 1028.07 1028.23 1028.31 1028.35
1024.51 1024.47 1024.39 1024.27 1024.23 1024.15 1024.03 1023.91 1023.75 1023.51 1023.31 1023.11 1022.91 1022.79 1022.63 1022.43 1022.27 1022.11 1021.95 1021.71 1021.43 1021.35 1021.27 1021.19 1021.15 1021.23 1021.39 1021.47 1021.59 1021.99 1022.31 1022.59 1022.75 1022.87 1023.39 1023.83 1023.71 1023.51 1024.63 1025.39 1026.03 1026.51 1026.79 1027.11 1027.47 1027.63 1027.79 1027.99 1028.19 1028.35 1028.39 1028.59
1024.59 1024.59 1024.55 1024.47 1024.43 1024.43 1024.39 1024.39 1024.31 1024.11 1023.83 1023.71 1023.59 1023.35 1023.15 1022.95 1022.71 1022.59 1022.43 1022.19 1021.95 1021.75 1021.63 1021.59 1021.63 1021.67 1021.63 1021.75 1022.03 1022.31 1022.51 1022.75 1023.03 1023.23 1023.11 1023.67 1024.15 1024.23 1024.35 1025.15 1025.63 1026.39 1026.91 1027.27 1027.63 1027.91 1028.15 1028.35 1028.39 1028.55 1028.55 1028.67
1024.67 1024.55 1024.59 1024.63 1024.63 1024.59 1024.63 1024.71 1024.71 1024.59 1024.39 1024.31 1024.15 1023.95 1023.75 1023.43 1023.15 1023.03 1022.87 1022.67 1022.43 1022.19 1022.11 1022.07 1022.03 1021.99 1021.99 1022.07 1022.31 1022.59 1022.83 1022.99 1023.11 1023.27 1023.63 1023.63 1024.35 1024.83 1024.75 1024.83 1025.55 1026.11 1026.71 1027.31 1027.75 1028.07 1028.43 1028.55 1028.71 1028.79 1028.75 1028.87
1024.95 1024.79 1024.71 1024.79 1024.79 1024.75 1024.99 1025.07 1025.11 1024.95 1024.95 1024.87 1024.75 1024.59 1024.35 1024.07 1023.79 1023.55 1023.35 1023.11 1022.87 1022.71 1022.59 1022.47 1022.55 1022.55 1022.43 1022.31 1022.31 1022.59 1022.91 1023.15 1023.31 1023.55 1023.87 1024.07 1024.27 1025.11 1025.51 1025.63 1025.75 1026.11 1026.51 1027.51 1028.07 1028.59 1028.79 1028.91 1028.99 1029.11 1029.23 1029.27
1025.47 1025.35 1025.07 1025.03 1025.35 1025.55 1025.71 1025.59 1025.43 1025.35 1025.31 1025.31 1025.27 1025.11 1024.91 1024.71 1024.47 1024.19 1023.87 1023.63 1023.43 1023.23 1023.11 1023.03 1022.87 1022.75 1022.79 1022.75 1022.67 1022.67 1022.83 1023.07 1023.35 1023.67 1023.95 1024.27 1024.67 1025.03 1025.75 1026.35 1026.27 1026.31 1025.99 1026.67 1028.39 1029.03 1029.19 1029.39 1029.39 1029.43 1029.47 1029.59
1025.99 1026.11 1026.11 1026.03 1026.03 1026.11 1026.11 1025.95 1025.83 1025.75 1025.71 1025.71 1025.59 1025.51 1025.39 1025.27 1025.07 1024.79 1024.55 1024.35 1024.15 1023.83 1023.59 1023.43 1023.35 1023.23 1023.03 1022.91 1022.91 1023.07 1023.27 1023.47 1023.75 1023.99 1024.15 1024.35 1025.11 1025.43 1025.35 1025.95 1026.35 1026.23 1025.47 1026.39 1026.75 1027.99 1029.31 1029.75 1029.87 1029.95 1029.99 1029.95
1026.47 1026.47 1026.39 1026.31 1026.23 1026.23 1026.23 1026.23 1026.15 1026.15 1026.15 1025.99 1025.91 1025.79 1025.71 1025.59 1025.47 1025.31 1025.11 1024.95 1024.79 1024.63 1024.35 1024.03 1023.79 1023.71 1023.71 1023.55 1023.39 1023.23 1023.39 1023.63 1023.95 1024.23 1024.35 1024.39 1024.47 1025.47 1025.91 1026.07 1026.23 1025.91 1025.47 1025.75 1027.07 1027.31 1027.87 1029.31 1029.55 1030.03 1030.35 1030.47
1026.75 1026.71 1026.59 1026.43 1026.39 1026.27 1026.19 1026.19 1026.19 1026.11 1026.11 1026.03 1025.99 1026.07 1026.11 1025.95 1025.87 1025.71 1025.59 1025.43 1025.23 1025.07 1024.91 1024.79 1024.43 1024.07 1023.87 1023.91 1023.99 1023.83 1023.59 1023.71 1023.91 1024.23 1024.51 1024.67 1024.95 1024.83 1025.67 1026.11 1026.23 1025.99 1025.95 1025.83 1025.47 1026.55 1026.43 1028.03 1028.51 1028.87 1029.79 1030.71
1026.83 1026.71 1026.55 1026.39 1026.31 1026.27 1026.19 1026.15 1026.11 1026.15 1026.23 1026.47 1026.51 1026.51 1026.47 1026.55 1026.39 1026.19 1026.07 1025.91 1025.71 1025.55 1025.39 1025.23 1025.03 1024.63 1024.31 1024.07 1024.07 1024.11 1024.07 1023.95 1023.87 1024.03 1024.27 1024.59 1024.87 1024.91 1024.59 1025.51 1025.87 1026.03 1026.07 1025.91 1025.27 1025.23 1026.51 1028.03 1028.47 1026.67 1028.47 1030.39
1026.95 1026.83 1026.63 1026.43 1026.23 1026.03 1026.07 1026.11 1026.71 1026.91 1027.11 1027.03 1027.11 1027.19 1027.11 1026.99 1026.83 1026.71 1026.59 1026.51 1026.35 1026.15 1025.95 1025.75 1025.55 1025.27 1024.87 1024.55 1024.35 1024.35 1024.39 1024.51 1024.47 1024.43 1024.51 1024.63 1024.87 1024.99 1024.99 1024.75 1025.23 1025.63 1025.95 1025.83 1025.79 1025.99 1025.99 1025.35 1024.43 1025.99 1028.79 1028.07
1027.19 1027.03 1026.95 1026.91 1026.87 1026.91 1026.87 1026.71 1027.23 1027.43 1027.43 1027.47 1027.47 1027.43 1027.39 1027.35 1027.27 1027.19 1027.07 1026.91 1026.83 1026.75 1026.55 1026.35 1026.19 1025.99 1025.75 1025.47 1025.15 1024.91 1024.75 1024.83 1025.03 1025.11 1025.07 1025.03 1025.07 1025.15 1025.15 1025.19 1025.03 1024.95 1025.39 1025.95 1025.99 1026.07 1026.07 1026.11 1025.87 1025.91 1027.35 1027.63
Thickness
5664 5666 5667 5669 5670 5671 5672 5673 5673 5673 5672 5671 5671 5670 5670 5670 5670 5669 5668 5667 5666 5665 5664 5664 5663 5662 5660 5657 5655 5654 5654 5655 5657 5658 5658 5656 5654 5653 5652 5651 5651 5651 5653 5653 5653 5653 5653 5652 5651 5650 5649 5647
5659 5662 5665 5667 5669 5670 5672 5673 5673 5673 5672 5671 5671 5670 5670 5670 5669 5667 5666 5664 5663 5662 5662 5661 5661 5660 5658 5656 5652 5650 5650 5650 5651 5652 5653 5653 5650 5649 5647 5646 5645 5646 5647 5648 5648 5648 5648 5648 5647 5645 5643 5642
5653 5658 5662 5665 5667 5667 5670 5671 5671 5672 5670 5670 5669 5669 5669 5669 5668 5666 5663 5661 5659 5660 5659 5659 5658 5656 5656 5654 5651 5648 5646 5645 5645 5647 5648 5650 5648 5645 5643 5642 5640 5641 5642 5643 5643 5643 5643 5642 5642 5640 5638 5637
5647 5652 5657 5661 5662 5663 5665 5666 5665 5665 5665 5666 5665 5663 5664 5664 5665 5663 5662 5659 5657 5658 5658 5657 5656 5654 5653 5652 5651 5647 5645 5642 5641 5643 5643 5646 5645 5642 5641 5638 5636 5636 5637 5638 5638 5638 5638 5637 5636 5634 5633 5632
5641 5645 5651 5656 5658 5659 5662 5660 5658 5659 5661 5662 5659 5657 5658 5658 5660 5660 5659 5657 5655 5656 5656 5655 5654 5651 5650 5649 5649 5646 5644 5641 5638 5639 5639 5642 5641 5638 5637 5635 5633 5633 5633 5633 5633 5633 5633 5632 5631 5629 5628 5626
5635 5638 5644 5650 5652 5655 5659 5658 5655 5656 5658 5657 5653 5651 5652 5653 5655 5655 5656 5655 5653 5654 5653 5652 5651 5649 5648 5647 5646 5644 5642 5640 5637 5636 5636 5637 5636 5634 5634 5633 5631 5630 5629 5628 5628 5627 5627 5627 5626 5624 5622 5621
5627 5631 5637 5642 5645 5649 5652 5653 5652 5652 5652 5651 5650 5649 5649 5650 5650 5651 5652 5653 5652 5652 5651 5649 5648 5646 5645 5644 5642 5641 5639 5637 5635 5633 5632 5632 5631 5630 5629 5629 5628 5626 5625 5623 5623 5622 5622 5620 5620 5619 5617 5616
5620 5624 5630 5634 5638 5641 5645 5647 5646 5647 5648 5646 5646 5647 5647 5647 5647 5648 5649 5649 5649 5649 5647 5645 5643 5642 5641 5640 5638 5638 5636 5633 5633 5631 5628 5626 5626 5626 5624 5624 5623 5622 5620 5618 5617 5616 5614 5613 5613 5613 5611 5610
5613 5617 5623 5628 5631 5634 5638 5641 5642 5643 5645 5645 5643 5643 5645 5645 5645 5645 5645 5645 5645 5645 5644 5642 5639 5639 5637 5635 5635 5635 5632 5629 5630 5627 5623 5621 5620 5620 5620 5620 5619 5617 5615 5612 5611 5610 5608 5606 5606 5605 5604 5604
5606 5610 5614 5618 5622 5627 5630 5633 5637 5637 5640 5643 5639 5638 5642 5643 5641 5642 5642 5640 5639 5640 5640 5639 5637 5636 5634 5632 5633 5634 5631 5626 5625 5622 5619 5617 5614 5613 5613 5614 5614 5612 5610 5608 5606 5604 5602 5600 5598 5597 5596 5596
5599 5601 5603 5608 5612 5616 5621 5625 5629 5630 5634 5637 5634 5634 5637 5637 5636 5635 5636 5636 5634 5633 5633 5633 5633 5632 5632 5631 5629 5630 5629 5624 5620 5618 5616 5614 5610 5607 5606 5606 5607 5606 5605 5603 5601 5599 5597 5594 5592 5590 5589 5588
5592 5594 5596 5599 5603 5607 5611 5616 5620 5623 5627 5629 5630 5630 5630 5634 5635 5631 5631 5631 5629 5628 5626 5625 5624 5624 5625 5626 5624 5623 5622 5619 5615 5614 5611 5607 5604 5601 5598 5598 5599 5598 5598 5596 5595 5593 5591 5588 5586 5583 5581 5580
5583 5587 5589 5590 5593 5597 5601 5607 5610 5614 5619 5622 5624 5625 5626 5632 5633 5630 5629 5625 5623 5621 5617 5615 5614 5614 5614 5614 5615 5614 5614 5612 5609 5608 5604 5600 5597 5594 5591 5590 5590 5590 5588 5586 5586 5586 5584 5582 5580 5577 5575 5573
5572 5578 5581 5583 5585 5589 5592 5597 5601 5605 5610 5613 5615 5618 5622 5627 5625 5623 5623 5620 5617 5615 5611 5608 5606 5607 5606 5605 5604 5603 5603 5603 5602 5602 5599 5595 5590 5587 5584 5581 5581 5581 5578 5576 5575 5575 5575 5574 5572 5570 5568 5566
5562 5567 5572 5576 5578 5581 5585 5588 5592 5596 5599 5603 5606 5609 5614 5618 5616 5613 5615 5614 5612 5610 5608 5604 5600 5599 5598 5597 5595 5592 5592 5592 5591 5591 5592 5589 5584 5579 5576 5572 5571 5571 5569 5566 5564 5564 5565 5564 5563 5562 5561 5559
5553 5557 5561 5566 5569 5573 5577 5580 5584 5587 5590 5593 5596 5600 5604 5607 5607 5605 5604 5603 5602 5602 5602 5602 5598 5594 5592 5589 5587 5584 5581 5581 5581 5580 5581 5579 5575 5571 5568 5563 5561 5561 5560 5556 5553 5554 5553 5554 5553 5551 5551 5550
5546 5549 5551 5556 5559 5562 5567 5571 5575 5578 5581 5584 5586 5590 5593 5594 5595 5596 5595 5594 5593 5592 5593 5596 5595 5593 5589 5586 5584 5580 5575 5572 5571 5569 5568 5568 5566 5562 5559 5555 5552 5552 5551 5547 5544 5543 5543 5543 5543 5541 5540 5540
5540 5541 5544 5547 5550 5554 5557 5561 5564 5567 5571 5575 5577 5580 5581 5582 5583 5584 5585 5585 5584 5582 5582 5584 5587 5587 5584 5580 5579 5577 5572 5568 5565 5561 5557 5557 5556 5553 5550 5547 5545 5545 5543 5540 5538 5535 5533 5532 5531 5531 5530 5529
5536 5536 5537 5539 5542 5545 5548 5551 5554 5557 5560 5564 5568 5570 5571 5572 5573 5573 5574 5574 5575 5574 5573 5573 5575 5576 5575 5574 5571 5569 5567 5565 5561 5557 5552 5550 5550 5545 5542 5540 5537 5537 5535 5533 5531 5529 5525 5523 5521 5521 5520 5520
5530 5531 5531 5532 5534 5536 5540 5542 5545 5548 5551 5554 5557 5559 5561 5563 5564 5564 5565 5565 5566 5567 5567 5566 5565 5566 5567 5566 5564 5561 5559 5556 5554 5553 5549 5546 5547 5544 5538 5533 5530 5528 5527 5525 5523 5521 5518 5515 5513 5512 5511 5510
5526 5525 5526 5526 5527 5529 5531 5533 5536 5539 5541 5544 5546 5549 5550 5552 5554 5555 5556 5557 5558 5559 5560 5559 5557 5558 5559 5558 5556 5554 5552 5549 5547 5546 5544 5541 5541 5542 5535 5529 5525 5521 5519 5517 5514 5512 5510 5508 5506 5505 5504 5502
5523 5522 5521 5521 5521 5522 5523 5524 5526 5529 5532 5533 5535 5538 5539 5541 5543 5545 5546 5547 5549 5550 5551 5550 5549 5548 5549 5549 5546 5545 5543 5542 5540 5539 5539 5535 5533 5534 5532 5527 5522 5517 5514 5510 5506 5503 5501 5499 5498 5497 5496 5495
5519 5519 5518 5516 5516 5516 5516 5516 5517 5519 5522 5523 5525 5526 5528 5531 5533 5535 5536 5537 5539 5540 5541 5541 5540 5539 5540 5540 5537 5534 5534 5533 5532 5531 5530 5529 5526 5524 5523 5522 5518 5513 5508 5503 5499 5497 5493 5491 5490 5489 5488 5487
5515 5515 5514 5512 5511 5510 5509 5509 5510 5511 5512 5513 5515 5516 5518 5520 5523 5525 5527 5528 5530 5530 5531 5531 5532 5531 5530 5531 5530 5527 5525 5524 5525 5523 5521 5521 5519 5515 5512 5511 5511 5509 5505 5498 5491 5487 5486 5484 5482 5481 5481 5479
5508 5508 5508 5507 5505 5503 5502 5502 5503 5503 5504 5504 5505 5506 5508 5510 5512 5514 5516 5518 5520 5521 5522 5521 5522 5523 5521 5521 5521 5520 5518 5516 5516 5515 5514 5512 5509 5507 5504 5501 5501 5502 5503 5496 5486 5480 5476 5475 5475 5473 5473 5472
5501 5500 5499 5499 5497 5496 5495 5495 5495 5496 5496 5496 5497 5498 5499 5500 5502 5504 5506 5507 5509 5511 5512 5512 5512 5513 5513 5513 5513 5512 5510 5508 5506 5504 5505 5505 5500 5497 5496 5494 5493 5495 5498 5494 5486 5478 5471 5466 5465 5464 5464 5463
5494 5493 5493 5492 5491 5490 5490 5490 5489 5488 5488 5489 5489 5490 5491 5492 5493 5495 5496 5497 5499 5500 5501 5502 5503 5504 5504 5503 5504 5503 5502 5501 5498 5496 5495 5496 5494 5490 5487 5485 5485 5489 5490 5488 5482 5476 5471 5465 5459 5458 5456 5453
5488 5488 5487 5487 5486 5486 5485 5485 5484 5483 5483 5483 5483 5483 5482 5483 5484 5485 5486 5487 5489 5490 5491 5493 5493 5495 5495 5494 5494 5494 5494 5494 5492 5490 5488 5486 5486 5485 5482 5477 5477 5480 5480 5482 5481 5475 5470 5460 5456 5460 5454 5443
5483 5483 5482 5482 5482 5481 5480 5479 5478 5478 5476 5475 5475 5474 5473 5474 5474 5475 5476 5476 5478 5479 5480 5482 5483 5485 5487 5486 5486 5485 5485 5485 5485 5484 5482 5480 5478 5479 5479 5475 5472 5471 5470 5474 5476 5473 5468 5459 5459 5462 5451 5440
5478 5478 5477 5477 5476 5476 5475 5473 5471 5469 5467 5466 5465 5465 5464 5465 5465 5465 5466 5466 5467 5468 5468 5469 5471 5472 5475 5476 5477 5476 5475 5474 5474 5474 5473 5473 5471 5470 5471 5470 5467 5466 5464 5465 5465 5464 5464 5462 5465 5461 5446 5440
5471 5471 5471 5470 5469 5468 5467 5466 5463 5461 5460 5459 5458 5457 5457 5456 5457 5456 5456 5457 5457 5458 5458 5458 5459 5459 5461 5463 5464 5465 5466 5464 5462 5462 5462 5463 5463 5462 5461 5461 5462 5461 5459 5457 5456 5456 5455 5454 5458 5455 5445 5443